STARLINK-34530

导读

STARLINK-34530是美国于2025年6月23日发射的星链卫星,隶属于SpaceX公司的星链星座项目。星链项目旨在构建全球卫星互联网星座,为全球各地用户提供高速低延迟的宽带互联网服务,该卫星入轨后将参与星座组网,进一步完善星链系统的全球覆盖能力,助力实现其全球通信互联的建设目标。

基本信息
目录编号:
64491
目录名称:
STARLINK-34530
国际标识:
2025-133V
轨道中心:
EARTH
卫星名称:
STARLINK-34530
卫星全名:
STARLINK-34530
卫星状态:
在轨 (已飞行355 天)
发射日期:
2025-06-23 UTC
国别 :
美国 (US)
星等 :
--
轨道信息
数据来源 国际轨道数据
星历时间: 2026-06-13T06:42:40+0800
22小时前
查看轨道信息
半长轴: 6840.791km
偏心率: 0.00011
轨道倾角: 53.160°
近地点辐角 92.188°
升交点赤经 31.427°
平近点角 267.925°
近地点: 461.901km
远地点: 463.407km
周期: 93.847分钟
每日圈数: 15.344166
详细信息
使用方式:
暂无
2D轨道图
3D轨道图
轨道高度分析图
轨道倾角分析图
轨道综合分析图
查看轨道综合分析图